Los Angeles, CA

5:50 PM PDT on June 27, 2017 (GMT -0700)
Los Angeles International

Weather History for KLAX - August, 2013

Change the Weather History Date:

Thursday, August 8, 2013

  Actual Average Record
Temperature  
Mean Temperature 67 °F 69 °F  
Max Temperature 71 °F 75 °F 88 °F (1947)
Min Temperature 62 °F 64 °F 57 °F (1951)
Degree Days  
Heating Degree Days 0 0  
Month to date heating degree days 0 0  
Since 1 June heating degree days 0 27  
Since 1 July heating degree days 0 2  
Cooling Degree Days 2 5  
Month to date cooling degree days 17 34  
Year to date cooling degree days 324 235  
Since 1 June cooling degree days 243 195  
Growing Degree Days 16 (Base 50)    
Moisture  
Dew Point 58 °F    
Average Humidity 74    
Maximum Humidity 87    
Minimum Humidity 61    
Precipitation  
Precipitation 0.00 in 0.00 in 0.01 in (1963)
Month to date precipitation T 0.01  
Year to date precipitation 2.64 8.85  
Since 1 July precipitation 0.03  
Sea Level Pressure  
Sea Level Pressure 29.96 in    
Wind  
Wind Speed 9 mph (WSW)    
Max Wind Speed 17 mph    
Max Gust Speed 22 mph    
Visibility 10 miles    
Events      
T = Trace of Precipitation, MM = Missing Value Source: NWS Daily Summary

Daily Weather History Graph

Daily Weather History Graph

Search for Another Location

Airport or City:

Trip Planner

Search our weather history database for the weather conditions in past years. The results will help you decide how hot, cold, wet, or windy it might be!

Date:

Astronomy

Aug. 08, 2013 Rise Set
Actual Time 6:10 AM PDT 7:47 PM PDT
Civil Twilight 5:43 AM PDT 8:14 PM PDT
Nautical Twilight 5:11 AM PDT 8:46 PM PDT
Astronomical Twilight 4:37 AM PDT 9:20 PM PDT
Moon 7:54 AM PDT (8/8) 8:38 PM PDT (8/8)
Length of Visible Light 14h 30m
Length of Day
13h 36m
Waxing Crescent, 3% of the Moon is Illuminated
Aug 8
Waxing Crescent
Aug 14
First Quarter
Aug 20
Full
Aug 28
Last Quarter
Sep 5
New

Hourly Weather History & Observations

Time (PDT) Temp. Dew Point Humidity Pressure Visibility Wind Dir Wind Speed Gust Speed Precip Events Conditions
12:53 AM 64.0 °F 57.9 °F 80% 29.99 in 10.0 mi SW 5.8 mph - N/A   Partly Cloudy
1:53 AM 63.0 °F 57.9 °F 84% 29.97 in 10.0 mi WSW 5.8 mph - N/A   Partly Cloudy
2:53 AM 64.0 °F 57.9 °F 80% 29.96 in 10.0 mi WSW 8.1 mph - N/A   Partly Cloudy
3:53 AM 62.1 °F 57.9 °F 86% 29.96 in 10.0 mi WSW 6.9 mph - N/A   Partly Cloudy
4:53 AM 62.1 °F 57.9 °F 86% 29.96 in 10.0 mi West 5.8 mph - N/A   Partly Cloudy
5:53 AM 62.1 °F 57.9 °F 86% 29.97 in 10.0 mi West 8.1 mph - N/A   Partly Cloudy
6:53 AM 63.0 °F 57.9 °F 84% 29.99 in 10.0 mi West 6.9 mph - N/A   Scattered Clouds
7:03 AM 62.6 °F 59.0 °F 88% 29.99 in 10.0 mi WNW 5.8 mph - N/A   Mostly Cloudy
7:53 AM 64.0 °F 57.9 °F 80% 30.00 in 10.0 mi SW 3.5 mph - N/A   Overcast
8:53 AM 66.0 °F 59.0 °F 78% 30.00 in 10.0 mi WSW 4.6 mph - N/A   Overcast
9:53 AM 66.0 °F 59.0 °F 78% 30.00 in 9.0 mi West 9.2 mph - N/A   Mostly Cloudy
10:25 AM 69.8 °F 59.0 °F 68% 30.01 in 10.0 mi Variable 6.9 mph - N/A   Scattered Clouds
10:53 AM 69.1 °F 57.9 °F 68% 30.00 in 10.0 mi WSW 5.8 mph - N/A   Partly Cloudy
11:53 AM 70.0 °F 57.9 °F 65% 30.00 in 10.0 mi West 9.2 mph - N/A   Partly Cloudy
12:53 PM 71.1 °F 57.9 °F 63% 29.99 in 10.0 mi WSW 11.5 mph - N/A   Partly Cloudy
1:53 PM 71.1 °F 59.0 °F 66% 29.98 in 10.0 mi West 12.7 mph - N/A   Scattered Clouds
2:53 PM 70.0 °F 57.9 °F 65% 29.97 in 10.0 mi WSW 13.8 mph - N/A   Scattered Clouds
3:53 PM 70.0 °F 57.9 °F 65% 29.95 in 10.0 mi West 15.0 mph - N/A   Scattered Clouds
4:53 PM 69.1 °F 59.0 °F 70% 29.94 in 10.0 mi West 15.0 mph - N/A   Scattered Clouds
5:53 PM 68.0 °F 57.9 °F 70% 29.92 in 10.0 mi WSW 15.0 mph - N/A   Partly Cloudy
6:53 PM 66.9 °F 57.9 °F 73% 29.92 in 10.0 mi West 16.1 mph - N/A   Clear
7:53 PM 66.0 °F 59.0 °F 78% 29.92 in 10.0 mi West 12.7 mph - N/A   Partly Cloudy
8:53 PM 64.9 °F 57.9 °F 78% 29.92 in 10.0 mi West 6.9 mph - N/A   Partly Cloudy
9:53 PM 64.0 °F 60.1 °F 87% 29.94 in 10.0 mi WSW 6.9 mph - N/A   Partly Cloudy
10:53 PM 64.0 °F 59.0 °F 84% 29.93 in 10.0 mi SSW 6.9 mph - N/A   Partly Cloudy
11:53 PM 64.0 °F 59.0 °F 84% 29.93 in 10.0 mi SSW 5.8 mph - N/A   Partly Cloudy